Location: Calmejanne
(44.7523°N, 1.9418°E)
Time: 19:57:03
(UTC+00:00)

Meteor 2-20 - Pass Details

Date: 14 May 2026
Orbit: 937 x 959 km, 82.5° (Epoch: 6 June)

Event Time Altitude Azimuth Distance (km) Brightness Sun altitude
Exits shadow 23:46:32 69° 188° (S) 1,011 4.3 -26.4°
Maximum altitude 23:47:22 90° 278° (W) 953 4.3 -26.4°
Drops below altitude 10° 23:53:29 10° 9° (N) 2,669 7.8 -26.4°
Sets 23:55:59 0° 9° (N) 3,616 8.8 -26.4°
